Spirit of St Louis, MO

4:42 AM CDT on June 28, 2017 (GMT -0500)
Spirit Of Saint Louis

Weather History for KSUS - October, 2013

Change the Weather History Date:

Friday, October 25, 2013

  Actual Average Record
Temperature  
Mean Temperature 40 °F -  
Max Temperature 55 °F 64 °F 84 °F (2011)
Min Temperature 25 °F 42 °F 25 °F (2013)
Degree Days  
Heating Degree Days 26    
Moisture  
Dew Point 25 °F    
Average Humidity 61    
Maximum Humidity 92    
Minimum Humidity 30    
Precipitation  
Precipitation 0.00 in - - ()
Sea Level Pressure  
Sea Level Pressure 30.42 in    
Wind  
Wind Speed 2 mph (SSW)    
Max Wind Speed 7 mph    
Max Gust Speed -    
Visibility 10 miles    
Events      
Averages and records for this station are not official NWS values.
T = Trace of Precipitation, MM = Missing Value Source: NWS Daily Summary

Daily Weather History Graph

Daily Weather History Graph

Search for Another Location

Airport or City:

Trip Planner

Search our weather history database for the weather conditions in past years. The results will help you decide how hot, cold, wet, or windy it might be!

Date:

Astronomy

Oct. 25, 2013 Rise Set
Actual Time 7:22 AM CDT 6:10 PM CDT
Civil Twilight 6:55 AM CDT 6:37 PM CDT
Nautical Twilight 6:23 AM CDT 7:08 PM CDT
Astronomical Twilight 5:53 AM CDT 7:39 PM CDT
Moon 11:31 PM CDT (10/25) 1:01 PM CDT (10/25)
Length of Visible Light 11h 42m
Length of Day
10h 48m
Waning Gibbous, 62% of the Moon is Illuminated
Oct 25
Waning Gibbous
Oct 26
Last Quarter
Nov 3
New
Nov 9
First Quarter
Nov 17
Full

Hourly Weather History & Observations

Time (CDT) Temp. Windchill Dew Point Humidity Pressure Visibility Wind Dir Wind Speed Gust Speed Precip Events Conditions
12:54 AM 26.1 °F - 23.0 °F 88% 30.45 in 10.0 mi Calm Calm - N/A   Clear
1:54 AM 25.0 °F - 21.9 °F 88% 30.46 in 10.0 mi Calm Calm - N/A   Clear
2:54 AM 26.1 °F - 23.0 °F 88% 30.47 in 10.0 mi Calm Calm - N/A   Clear
3:54 AM 26.1 °F - 23.0 °F 88% 30.47 in 10.0 mi Calm Calm - N/A   Clear
4:54 AM 25.0 °F - 23.0 °F 92% 30.48 in 10.0 mi Calm Calm - N/A   Clear
5:54 AM 26.1 °F - 23.0 °F 88% 30.51 in 10.0 mi Calm Calm - N/A   Clear
6:54 AM 26.1 °F - 23.0 °F 88% 30.52 in 10.0 mi Calm Calm - N/A   Clear
7:54 AM 25.0 °F - 21.9 °F 88% 30.53 in 10.0 mi Calm Calm - N/A   Clear
8:54 AM 30.9 °F - 28.0 °F 89% 30.55 in 10.0 mi Calm Calm - N/A   Clear
9:54 AM 39.0 °F 35.7 °F 30.0 °F 70% 30.54 in 10.0 mi WSW 4.6 mph - N/A   Clear
10:54 AM 45.0 °F 42.6 °F 28.9 °F 53% 30.53 in 10.0 mi WSW 4.6 mph - N/A   Clear
11:54 AM 48.9 °F - 27.0 °F 43% 30.52 in 10.0 mi West 5.8 mph - N/A   Partly Cloudy
12:54 PM 50.0 °F - 27.0 °F 41% 30.48 in 10.0 mi Calm Calm - N/A   Clear
1:54 PM 52.0 °F - 25.0 °F 35% 30.44 in 10.0 mi Variable 3.5 mph - N/A   Scattered Clouds
2:54 PM 53.1 °F - 24.1 °F 32% 30.40 in 10.0 mi Variable 3.5 mph - N/A   Partly Cloudy
3:54 PM 54.0 °F - 23.0 °F 30% 30.38 in 10.0 mi Calm Calm - N/A   Clear
4:54 PM 54.0 °F - 23.0 °F 30% 30.35 in 10.0 mi South 5.8 mph - N/A   Clear
5:54 PM 50.0 °F - 24.1 °F 36% 30.33 in 10.0 mi SSW 3.5 mph - N/A   Clear
6:54 PM 43.0 °F 40.3 °F 27.0 °F 53% 30.32 in 10.0 mi SSE 4.6 mph - N/A   Clear
7:54 PM 42.1 °F 37.7 °F 26.1 °F 53% 30.31 in 10.0 mi South 6.9 mph - N/A   Clear
8:54 PM 42.1 °F 38.4 °F 26.1 °F 53% 30.29 in 10.0 mi South 5.8 mph - N/A   Clear
9:54 PM 43.0 °F 38.8 °F 25.0 °F 49% 30.27 in 10.0 mi South 6.9 mph - N/A   Clear
10:54 PM 44.1 °F 40.8 °F 24.1 °F 45% 30.25 in 10.0 mi South 5.8 mph - N/A   Clear
11:54 PM 43.0 °F 38.8 °F 25.0 °F 49% 30.22 in 10.0 mi SSW 6.9 mph - N/A   Clear